MB7UKB-10 Weather Reports


time (UTC)temp
F
wind
direction
speed
knots
gust
knots
rain 1hr
in
rain 24hr
in
rain mn
in
humidity
%
barometer
mb
20260510162008 56 43 4.3 6.1 0.00 0.00 0.00 51 1015.0
20260510155008 55 126 6.1 6.1 0.00 0.00 0.00 54 1015.4
20260510152008 55 223 0.9 7.0 0.00 0.00 0.00 56 1015.9
20260510145008 55 16 2.6 4.3 0.00 0.00 0.00 56 1016.0
20260510142009 55 156 2.6 3.5 0.00 0.00 0.00 60 1016.2
20260510135008 54 32 2.6 5.2 0.00 0.00 0.00 60 1016.4
20260510132008 54 320 2.6 6.1 0.00 0.00 0.00 62 1016.5
20260510125009 55 264 5.2 5.2 0.00 0.00 0.00 62 1016.6
20260510122008 54 178 1.7 3.5 0.00 0.00 0.00 66 1017.1
20260510115008 55 26 3.5 5.2 0.00 0.00 0.00 63 1017.1
20260510112008 58 128 3.5 4.3 0.00 0.00 0.00 57 1017.1
20260510105008 58 150 3.5 6.1 0.00 0.00 0.00 58 1017.5
20260510102008 56 187 0.9 3.5 0.00 0.00 0.00 62 1017.4
20260510095008 56 237 1.7 7.0 0.00 0.00 0.00 61 1017.3
20260510092008 54 102 3.5 7.8 0.00 0.00 0.00 65 1017.8
20260510082010 52 104 1.7 4.3 0.00 0.00 0.00 70 1018.1
20260510075008 51 66 1.7 7.8 0.00 0.00 0.00 73 1018.0
20260510072008 51 181 3.5 4.3 0.00 0.00 0.00 75 1018.2
20260510065008 50 179 1.7 5.2 0.00 0.00 0.00 77 1018.0
20260510062008 50 206 1.7 5.2 0.00 0.00 0.00 79 1018.0
20260510055008 49 292 2.6 4.3 0.00 0.00 0.00 79 1017.8
20260510052008 49 26 4.3 7.0 0.00 0.00 0.00 80 1017.8
20260510045009 49 321 0.0 4.3 0.00 0.00 0.00 81 1018.0
20260510042008 49 243 0.0 2.6 0.00 0.00 0.00 80 1017.9
20260510035008 49 246 1.7 5.2 0.00 0.00 0.00 81 1018.2
20260510032008 49 7 6.1 6.1 0.00 0.00 0.00 80 1018.0
20260510022009 49 321 1.7 4.3 0.00 0.00 0.00 82 1018.2
20260510015008 49 6 2.6 3.5 0.00 0.00 0.00 82 1018.2
20260510012009 49 38 0.9 3.5 0.00 0.00 0.00 79 1018.5
20260510005008 50 38 2.6 3.5 0.00 0.00 0.00 74 1018.2
20260510002008 51 70 0.0 5.2 0.00 0.00 0.00 63 1018.4
20260509232008 54 237 1.7 3.5 0.00 0.00 0.00 53 1018.0
20260509225008 55 112 0.9 2.6 0.00 0.00 0.00 51 1017.8
20260509222008 55 321 0.0 3.5 0.00 0.00 0.00 49 1017.7
20260509215009 56 130 0.0 3.5 0.00 0.00 0.00 49 1017.9
20260509212009 57 89 0.0 0.9 0.00 0.00 0.00 51 1017.6
20260509205008 59 242 0.0 0.0 0.00 0.00 0.00 47 1017.2
20260509195009 61 89 0.0 1.7 0.00 0.00 0.00 43 1016.7
20260509192009 63 269 1.7 4.3 0.00 0.00 0.00 41 1016.7
20260509185009 64 82 0.9 3.5 0.00 0.00 0.00 40 1016.3
20260509182010 66 121 3.5 3.5 0.00 0.00 0.00 37 1016.0
20260509175009 68 142 0.9 4.3 0.00 0.00 0.00 37 1015.8
20260509172009 69 187 1.7 4.3 0.00 0.00 0.00 36 1015.6